ALSAT 1 1 27559U 02054A 10076.67937625 .00000125 00000-0 29113-4 0 2786 2 27559 97.9029 308.3514 0022873 201.7314 158.2950 14.69374528389885 NIGERIASAT 1 1 27941U 03042C 10076.71317598 .00000082 00000-0 24745-4 0 3414 2 27941 97.9066 305.7212 0011513 0.9320 359.1913 14.63065587345533 UK-DMC 1 27942U 03042D 10076.67794851 .00000176 00000-0 43034-4 0 3338 2 27942 97.9058 305.4044 0011317 9.0861 351.0567 14.63061684345526 BILSAT 1 1 27943U 03042E 10076.68109401 .00000096 00000-0 27549-4 0 1939 2 27943 97.9038 305.0705 0011613 358.9425 1.1775 14.62940490345519 BEIJING 1 1 28890U 05043A 10076.72614753 .00000127 00000-0 35775-4 0 710 2 28890 98.0198 323.9567 0014961 204.5638 155.4877 14.60088718233826 HJ-1A 1 33320U 08041A 10076.68276451 .00000154 00000-0 30216-4 0 6899 2 33320 97.9515 153.1639 0023575 282.9367 76.9200 14.75236252 82210 HJ-1B 1 33321U 08041B 10076.71487958 .00000034 00000-0 12683-4 0 7289 2 33321 97.9534 153.2369 0041949 295.2158 64.4727 14.75245665 82206 YAOGAN 4 1 33446U 08061A 10076.70958033 -.00000724 00000-0 -99002-4 0 4448 2 33446 97.8771 156.1758 0012981 223.0416 136.9778 14.75500787 69531 YAOGAN 5 1 33456U 08064A 10076.70320882 .00002255 00000-0 92655-4 0 4331 2 33456 97.3438 152.2396 0006113 118.6735 27.9202 15.25194133 69738 DEIMOS-1 1 35681U 09041A 10076.68575740 .00000086 00000-0 22903-4 0 7131 2 35681 98.1090 335.2656 0001420 108.3070 251.8326 14.69345740 33947 UK-DMC 2 1 35683U 09041C 10076.67909381 .00000108 00000-0 28226-4 0 7201 2 35683 98.1126 334.5063 0006273 340.3871 19.7114 14.66453660 33899